Regional Weather Roundup
Issued by NWS

Home | Current Version | Previous Version | Text Only | Print | Product List | Glossary On
Versions: 1 2 3 4 5 6 7 8 9 10 11 12 13 14 15 16 17 18 19 20 21 22 23 24 25 26 27 28 29 30 31 32 33 34 35 36 37 38 39 40 41 42 43 44 45 46 47 48 49 50
997
ASUS44 KLIX 260501
RWRLA
LOUISIANA WEATHER ROUNDUP
NATIONAL WEATHER SERVICE NEW ORLEANS LA
1100 PM CST SUN JAN 25 2015

NOTE: "FAIR" INDICATES FEW OR NO CLOUDS BELOW 12,000 FEET WITH NO
      SIGNIFICANT WEATHER AND/OR OBSTRUCTIONS TO VISIBILITY.
      SKY/WX - SKY CONDITION AND SIGNIFICANT WEATHER.
      TMP - AIR TEMPERATURE.    DP   - DEWPOINT TEMPERATURE.
      RH  - RELATIVE HUMIDITY.  PRES - PRESSURE.
      HX  - HEAT INDEX.         WCI  - WIND CHILL INDEX.

*  THESE STATIONS ARE NOT NWS OR FAA STATIONS AND ARE NOT UNDER
   NWS QUALITY CONTROL.

LAZ040-048-061>063-065-066-069-260600-
SOUTHEAST LOUISIANA

CITY           SKY/WX    TMP DP  RH WIND       PRES   REMARKS
N.O. AUDUBON     N/A     52  48  85 MISG        N/A
N.O. INTL ARPT PTCLDY    52  43  71 W12       29.99R
N.O. LAKEFRONT CLEAR     56  46  69 W17       29.98R
N.O. DOWNTOWN* FAIR     N/A N/A N/A W6        29.99R
SLIDELL        CLEAR     53  42  66 VRB5      29.96R
BATON ROUGE    CLEAR     54  32  43 W8        30.00R
BOOTHVILLE     PTCLDY    55  48  77 W12       29.98R
BELLE CHASSE   CLEAR     53  43  68 W7        29.99R
BOGALUSA*        N/A     46  38  74 CALM      29.97R
GALLIANO*      NOT AVBL
NEW ROADS*     NOT AVBL
GONZALES*      NOT AVBL
HAMMOND*       NOT AVBL
HOUMA*         CLEAR     52  46  82 W6        30.01R
PORT FOURCHON* CLEAR     57  50  77 W16G23    30.04R

$$

LAZ041-044-053-054-260600-
SOUTHWEST LOUISIANA

CITY           SKY/WX    TMP DP  RH WIND       PRES   REMARKS
LAKE CHARLES   CLEAR     56  29  35 NW13G22   30.07R
LAFAYETTE      CLEAR     54  34  46 NW10      30.04R
PATTERSON      CLEAR     54  41  62 NW8       30.04R
SALT POINT       N/A     53  47  79 NW6       30.04R
NEW IBERIA     CLEAR     52  40  63 NW9       30.05R
CHENAULT AIRPK CLEAR     56  29  35 NW15G21   30.07S

$$

LAZ027-028-260600-
CENTRAL LOUISIANA

CITY           SKY/WX    TMP DP  RH WIND       PRES   REMARKS
FORT POLK      CLEAR     52  29  41 NW12      30.07R
ALEXANDRIA INT CLEAR     52  31  44 NW10      30.04R
ALEXANDRIA     CLEAR     54  31  41 NW10      30.04R

$$

LAZ001-002-260600-
NORTHWEST LOUISIANA

CITY           SKY/WX    TMP DP  RH WIND       PRES   REMARKS
SHREVEPORT     CLEAR     48  32  53 NW9       30.09R
BARKSDALE AFB  CLEAR     48  31  53 NW9       30.08R
DTN SHREVEPORT CLEAR     49  30  48 W6        30.09R

$$

LAZ014-016-260600-
NORTHEAST LOUISIANA

CITY           SKY/WX    TMP DP  RH WIND       PRES   REMARKS
MONROE         CLEAR     51  34  52 NW12      30.02R
TALLULAH       MOCLDY    50  35  56 NW6       29.99R

$$




USA.gov is the U.S. government's official web portal to all federal, state and local government web resources and services.